[[{"header":{"parameterUnit":"m.s-1","parameterCategory":1,"la1":30.2991,"la2":30.254,"lo1":-89.0895,"lo2":-89.0444,"dy":0.0017,"dx":0.0017,"nx":28,"ny":28,"refTime":"2024-03-13T21:00:00:Z","depth":0,"parameterNumber":2,"parameterNumberName":"U-component_of_WINDS"},"data":[0,0,0,0,0,0,0,0,0,0,0,0,0,0,0,0,0,0,0,0,0,0,0,0,0,0,0,0,0,0,0,0,0,0,0,0,0,0,0,0,0,0,0,0,0,0,0,0,0,0,0,0,0,0,0,0,0,0,-1.5238,-1.5238,0,-1.5248,-1.5248,-1.5248,-1.5223,-1.5223,-1.5222,-1.5221,-1.5231,-1.5232,-1.5233,0,0,0,0,0,0,0,0,0,0,0,0,0,-1.5196,-1.5197,-1.5238,-1.5238,-1.5238,-1.5248,-1.5248,-1.5248,-1.5224,-1.5223,-1.5222,-1.5221,-1.523,-1.5231,-1.5233,0,0,0,0,0,0,0,0,0,0,0,0,0,-1.5211,-1.5197,-1.5238,-1.5227,-1.5226,-1.5248,-1.5248,-1.5248,-1.5224,-1.5223,-1.5221,-1.522,-1.523,-1.5231,-1.5233,-1.5265,0,0,-1.5237,-1.5238,0,0,0,0,0,0,0,0,-1.521,-1.5213,-1.5228,-1.5228,-1.5227,-1.5233,-1.5237,-1.5254,-1.5224,-1.5225,-1.5221,-1.522,-1.5232,-1.5234,-1.5238,-1.5265,-1.5266,-1.5237,-1.5238,-1.5239,-1.5239,0,0,0,0,0,0,0,-1.5209,-1.5212,-1.5242,-1.5229,-1.5228,-1.5221,-1.5222,-1.524,-1.5235,-1.5224,-1.5223,-1.5224,-1.5232,-1.5237,-1.5238,-1.5266,-1.5237,-1.5239,-1.524,-1.524,-1.5319,-1.5321,0,0,0,0,0,0,-1.521,-1.5211,-1.5241,-1.5242,-1.5216,-1.5223,-1.5224,-1.5232,-1.5235,-1.5234,-1.5225,-1.5223,-1.5235,-1.5236,-1.5238,-1.5275,-1.5239,-1.524,-1.5241,-1.5318,-1.532,-1.5321,0,0,0,0,0,0,-1.5209,-1.5213,-1.5241,-1.5226,-1.5229,-1.5225,-1.5234,-1.5233,-1.5238,-1.5235,-1.5234,-1.5231,-1.5234,-1.5236,-1.5258,-1.5275,-1.5241,-1.5242,-1.5317,-1.5319,-1.532,-1.535,0,0,0,0,0,0,-1.5208,-1.5212,-1.5225,-1.5227,-1.523,-1.5261,-1.5236,-1.5234,-1.5241,-1.5238,-1.524,-1.524,-1.5233,-1.5256,-1.526,-1.5276,-1.5243,-1.5315,-1.5318,-1.532,-1.5347,-1.5352,-1.5357,0,0,0,0,0,-1.5206,-1.5233,-1.5226,-1.5229,-1.5245,-1.5262,-1.5264,-1.5256,-1.5242,-1.5254,-1.5252,-1.524,-1.5273,-1.5259,-1.5263,-1.528,-1.5314,-1.5317,-1.532,-1.5345,-1.5351,-1.5357,0,0,0,0,0,0,-1.5232,-1.5233,-1.5225,-1.5252,-1.5257,-1.5258,-1.5273,-1.5263,-1.5272,-1.5269,-1.5259,-1.5259,-1.5283,-1.5284,-1.5268,-1.5311,-1.5291,-1.5295,-1.5309,-1.5315,-1.532,-1.5318,-1.5245,0,0,0,0,0,-1.5242,-1.5255,-1.5255,-1.5279,-1.5282,-1.5277,-1.5284,-1.5278,-1.5282,-1.5284,-1.5284,-1.5289,-1.53,-1.5308,-1.5318,-1.5348,-1.5347,-1.5362,-1.5366,-1.537,-1.5373,-1.5388,-1.5394,-1.533,-1.533,-1.533,0,0,-1.526,-1.5262,-1.5271,-1.5284,-1.5287,-1.5301,-1.5279,-1.5295,-1.5305,-1.5286,-1.5307,-1.5307,-1.5312,-1.5338,-1.5349,-1.5339,-1.5391,-1.5374,-1.5377,-1.5378,-1.5391,-1.5397,-1.5402,-1.5332,-1.5332,-1.5331,0,0,-1.5301,-1.5304,-1.5324,-1.5328,-1.5333,-1.533,-1.5335,-1.5337,-1.5336,-1.5357,-1.5343,-1.5355,-1.5376,-1.5379,-1.5384,-1.5426,-1.5415,-1.543,-1.5454,-1.5469,-1.5474,-1.5478,-1.5492,-1.5497,-1.5433,-1.5433,-1.5433,0,-1.5323,-1.5344,-1.5336,-1.5353,-1.5358,-1.5343,-1.5363,-1.5367,-1.5375,-1.5379,-1.5369,-1.5393,-1.5395,-1.5421,-1.5432,-1.5436,-1.5441,-1.5429,-1.5474,-1.5478,-1.5482,-1.5495,-1.5501,-1.5435,-1.5435,-1.5435,-1.5435,0,-1.537,-1.5385,-1.5401,-1.5409,-1.5417,-1.5436,-1.543,-1.5439,-1.5432,-1.543,-1.5451,-1.5453,-1.5463,-1.5469,-1.5463,-1.5494,-1.5488,-1.5476,-1.5455,-1.549,-1.5502,-1.5507,-1.5438,-1.5437,-1.5436,-1.5436,0,0,-1.5427,-1.5431,-1.5437,-1.544,-1.5445,-1.5456,-1.5474,-1.5484,-1.5491,-1.5498,-1.5512,-1.5529,-1.5518,-1.5523,-1.5517,-1.553,-1.5562,-1.5516,-1.5516,-1.5523,-1.5596,-1.5604,-1.561,-1.5555,-1.5556,-1.5557,-1.5595,0,-1.5466,-1.5496,-1.5489,-1.5519,-1.5532,-1.5518,-1.5533,-1.5537,-1.5536,-1.5547,-1.5545,-1.5557,-1.5542,-1.5545,-1.5557,-1.5556,-1.5576,-1.5553,-1.5567,-1.5567,-1.5565,-1.5616,-1.5625,-1.566,-1.56,-1.56,-1.5601,0,-1.5515,-1.5524,-1.5554,-1.5557,-1.5562,-1.5576,-1.5584,-1.5595,-1.56,-1.5598,-1.5604,-1.5595,-1.5612,-1.5593,-1.5616,-1.56,-1.5606,-1.5606,-1.5607,-1.5607,-1.5585,-1.5616,-1.5672,-1.5676,-1.5609,-1.5608,-1.5608,0,-1.5551,-1.5571,-1.5591,-1.5595,-1.5599,-1.5608,-1.561,-1.5614,-1.5621,-1.5628,-1.5632,-1.5642,-1.5647,-1.5655,-1.5649,-1.5636,-1.5672,-1.5653,-1.567,-1.567,-1.5677,-1.5676,-1.5733,-1.5683,-1.5683,-1.5683,-1.5683,0,-1.5595,-1.5614,-1.5607,-1.562,-1.5641,-1.5634,-1.5654,-1.5655,-1.5658,-1.567,-1.5659,-1.567,-1.5663,-1.5673,-1.5669,-1.5688,-1.5691,-1.5689,-1.5687,-1.5689,-1.5689,-1.5691,-1.5688,-1.5685,-1.5684,-1.5684,-1.5684,0,-1.5638,-1.5635,-1.5656,-1.5658,-1.5659,-1.5674,-1.5676,-1.5687,-1.5685,-1.5701,-1.5704,-1.5701,-1.5713,-1.5708,-1.5721,-1.5718,-1.5742,-1.5738,-1.574,-1.5738,-1.5755,-1.5753,-1.5814,-1.5821,-1.5769,-1.5769,-1.577,0,-1.5665,-1.568,-1.5683,-1.5691,-1.5693,-1.5706,-1.5712,-1.5706,-1.5713,-1.5719,-1.573,-1.5741,-1.575,-1.577,-1.5768,-1.5778,-1.5773,-1.5794,-1.5774,-1.5775,-1.5771,-1.577,-1.5771,-1.5797,-1.5798,-1.5798,-1.5798,0,-1.5713,-1.5711,-1.5721,-1.5731,-1.5739,-1.5746,-1.5753,-1.5759,-1.5753,-1.5762,-1.5774,-1.5781,-1.5794,-1.5805,-1.5814,-1.5815,-1.5805,-1.5805,-1.5809,-1.581,-1.581,-1.5809,-1.5749,-1.5803,-1.5803,-1.5802,-1.5802,-1.5802,-1.5749,-1.576,-1.5765,-1.5776,-1.578,-1.5786,-1.5797,-1.5797,-1.5807,-1.5817,-1.5813,-1.5827,-1.5831,-1.5842,-1.5845,-1.5855,-1.5847,-1.5853,-1.5855,-1.5856,-1.5858,-1.581,-1.5857,-1.5857,-1.5857,-1.5857,-1.5856,0,-1.5795,-1.5797,-1.5808,-1.5817,-1.5826,-1.5817,-1.5824,-1.5831,-1.5844,-1.5849,-1.5857,-1.5871,-1.5882,-1.5882,-1.5891,-1.59,-1.5896,-1.5903,-1.5901,-1.5901,-1.5865,-1.586,-1.5906,-1.5906,-1.5906,-1.5906,-1.5906,-1.5906,-1.582,-1.5839,-1.5837,-1.5858,-1.586,-1.5874,-1.5878,-1.5884,-1.5887,-1.5903,-1.5912,-1.5912,-1.5915,-1.5925,-1.5934,-1.5934,-1.5937,-1.5945,-1.5943,-1.5909,-1.5904,-1.5899,-1.5894,-1.5946,-1.5947,-1.5978,-1.5978,-1.5979]},{"header":{"parameterUnit":"m.s-1","parameterCategory":1,"la1":30.2991,"la2":30.254,"lo1":-89.0895,"lo2":-89.0444,"dy":0.0017,"dx":0.0017,"nx":28,"ny":28,"refTime":"2024-03-13T21:00:00:Z","depth":0,"parameterNumber":3,"parameterNumberName":"V-component_of_WINDS"},"data":[0,0,0,0,0,0,0,0,0,0,0,0,0,0,0,0,0,0,0,0,0,0,0,0,0,0,0,0,0,0,0,0,0,0,0,0,0,0,0,0,0,0,0,0,0,0,0,0,0,0,0,0,0,0,0,0,0,0,2.3287,2.3287,0,2.3287,2.3287,2.3287,2.3298,2.3298,2.3298,2.3299,2.3294,2.3293,2.3293,0,0,0,0,0,0,0,0,0,0,0,0,0,2.3297,2.3297,2.3287,2.3287,2.3287,2.3287,2.3287,2.3287,2.3298,2.3298,2.3298,2.3299,2.3294,2.3293,2.3293,0,0,0,0,0,0,0,0,0,0,0,0,0,2.3294,2.3296,2.3287,2.3293,2.3293,2.3287,2.3287,2.3287,2.3298,2.3298,2.3298,2.3299,2.3294,2.3293,2.3293,2.3279,0,0,2.3291,2.329,0,0,0,0,0,0,0,0,2.3294,2.3293,2.3292,2.3293,2.3293,2.3293,2.3288,2.3284,2.3297,2.3296,2.3299,2.3299,2.3293,2.3292,2.3291,2.3279,2.3279,2.3291,2.329,2.329,2.329,0,0,0,0,0,0,0,2.3294,2.3294,2.3287,2.3292,2.3293,2.3295,2.3295,2.3287,2.3291,2.3296,2.3297,2.3297,2.3293,2.3291,2.3291,2.3279,2.3291,2.329,2.329,2.3289,2.3259,2.3258,0,0,0,0,0,0,2.3294,2.3294,2.3287,2.3287,2.3295,2.3294,2.3294,2.3292,2.3292,2.3292,2.3296,2.3297,2.3292,2.3291,2.3291,2.3277,2.329,2.3289,2.3289,2.3259,2.3258,2.3258,0,0,0,0,0,0,2.3294,2.3293,2.3287,2.3291,2.329,2.3294,2.3291,2.3292,2.3291,2.3292,2.3292,2.3294,2.3293,2.3291,2.3283,2.3277,2.3289,2.3288,2.326,2.3259,2.3258,2.3248,0,0,0,0,0,0,2.3294,2.3293,2.3288,2.329,2.329,2.328,2.3291,2.3292,2.329,2.3291,2.329,2.329,2.3293,2.3284,2.3282,2.3276,2.3288,2.326,2.3259,2.3258,2.3248,2.3247,2.3245,0,0,0,0,0,2.3295,2.3284,2.3288,2.3287,2.3284,2.3279,2.3279,2.3283,2.3289,2.3284,2.3286,2.329,2.3278,2.3283,2.3281,2.3274,2.326,2.3259,2.3259,2.3249,2.3247,2.3245,0,0,0,0,0,0,2.3278,2.3284,2.3289,2.3278,2.3279,2.3281,2.3275,2.328,2.3277,2.3278,2.3283,2.3283,2.3274,2.3273,2.3279,2.3263,2.327,2.3269,2.3264,2.3261,2.326,2.326,2.3287,0,0,0,0,0,2.3274,2.3271,2.3276,2.3266,2.3266,2.3271,2.3269,2.3273,2.3272,2.3272,2.3272,2.3271,2.3267,2.3264,2.326,2.3249,2.3249,2.3244,2.3242,2.324,2.3239,2.3235,2.3233,2.3255,2.3255,2.3255,0,0,2.3264,2.3267,2.3264,2.3263,2.3263,2.326,2.327,2.3265,2.3263,2.3271,2.3263,2.3264,2.3263,2.3254,2.3249,2.3253,2.3234,2.3239,2.3238,2.3238,2.3234,2.3232,2.323,2.3254,2.3254,2.3254,0,0,2.3245,2.3246,2.324,2.3241,2.3243,2.3246,2.3245,2.3247,2.3249,2.3242,2.3249,2.3245,2.3238,2.3238,2.3237,2.3221,2.3225,2.3219,2.321,2.3206,2.3205,2.3203,2.3199,2.3197,2.3218,2.3218,2.3218,0,2.3232,2.3228,2.3235,2.3231,2.3231,2.324,2.3234,2.3234,2.3234,2.3233,2.3238,2.3231,2.3231,2.3222,2.3219,2.3217,2.3216,2.3219,2.3204,2.3203,2.3202,2.3198,2.3196,2.3217,2.3218,2.3218,2.3218,0,2.3212,2.321,2.3204,2.3207,2.3206,2.32,2.3207,2.3205,2.321,2.3213,2.3207,2.3208,2.3205,2.3204,2.3207,2.3197,2.3199,2.3204,2.3211,2.3199,2.3195,2.3194,2.3217,2.3217,2.3217,2.3217,0,0,2.318,2.319,2.3188,2.319,2.3194,2.3192,2.3188,2.3187,2.3187,2.3186,2.3183,2.3179,2.3184,2.3183,2.3187,2.3183,2.3173,2.3189,2.3189,2.3187,2.3163,2.316,2.3158,2.3176,2.3176,2.3176,2.3164,0,2.3163,2.3157,2.3165,2.3158,2.3156,2.3167,2.3163,2.3165,2.3169,2.3168,2.3171,2.3168,2.3175,2.3175,2.3172,2.3175,2.3168,2.3176,2.3173,2.3173,2.3174,2.3156,2.3152,2.314,2.3162,2.3162,2.3162,0,2.3141,2.3143,2.3136,2.3144,2.3143,2.314,2.3142,2.314,2.3144,2.3147,2.3147,2.3153,2.3149,2.3157,2.3153,2.3158,2.3157,2.3159,2.3159,2.3158,2.3167,2.3156,2.3137,2.3135,2.3159,2.316,2.316,0,2.312,2.3121,2.3118,2.3119,2.3127,2.3125,2.3128,2.3132,2.3133,2.3134,2.3134,2.3135,2.3135,2.3135,2.3141,2.3146,2.3136,2.3144,2.3139,2.3139,2.3136,2.3136,2.3117,2.3135,2.3135,2.3135,2.3135,0,2.31,2.3095,2.3109,2.3107,2.3103,2.3112,2.3108,2.3112,2.3116,2.3114,2.3123,2.3121,2.3129,2.3129,2.3133,2.313,2.3129,2.3132,2.3133,2.3131,2.3131,2.3131,2.3132,2.3135,2.3135,2.3135,2.3135,0,2.3076,2.3085,2.3082,2.3091,2.3094,2.309,2.3098,2.3096,2.3102,2.31,2.31,2.3108,2.3108,2.3115,2.3115,2.3118,2.3113,2.3116,2.3113,2.3114,2.3109,2.3109,2.3089,2.3087,2.3106,2.3106,2.3106,0,2.3062,2.306,2.307,2.3071,2.3074,2.3075,2.3076,2.3086,2.3087,2.3092,2.309,2.3092,2.3093,2.3093,2.3098,2.3099,2.3102,2.3095,2.3102,2.3101,2.3103,2.3104,2.3104,2.3093,2.3093,2.3093,2.3093,0,2.3038,2.3043,2.3046,2.3051,2.3053,2.3056,2.306,2.306,2.3071,2.3072,2.3073,2.3075,2.3077,2.3079,2.3081,2.3084,2.309,2.3091,2.309,2.3088,2.3087,2.3089,2.3109,2.3091,2.3091,2.3091,2.3091,2.3091,2.3019,2.3019,2.3027,2.303,2.3034,2.3039,2.3039,2.3045,2.3047,2.3051,2.3057,2.3058,2.3063,2.3068,2.307,2.3071,2.3075,2.3073,2.3072,2.3072,2.3072,2.3087,2.3071,2.3071,2.3072,2.3072,2.3072,0,2.2997,2.3003,2.3006,2.3013,2.3016,2.3024,2.3029,2.3031,2.3032,2.3037,2.304,2.3042,2.3045,2.3051,2.3054,2.3054,2.3057,2.3054,2.3055,2.3055,2.3068,2.3069,2.3052,2.3052,2.3052,2.3052,2.3052,2.3052,2.2985,2.2985,2.2992,2.2994,2.3,2.3003,2.3006,2.301,2.3015,2.3018,2.3021,2.3026,2.3032,2.3036,2.3039,2.3041,2.3042,2.3038,2.3041,2.3052,2.3054,2.3056,2.3057,2.3038,2.3038,2.3029,2.3029,2.3029]}]]